Flag for Poland Weather past 2 weeks in Grudziądz, Poland

Now
91 °F

Passing clouds.


Feels Like: 87 °F
Forecast: 65 / 96 °F
Wind: 2 mph from Southeast

Location: Torun

Current Time: Jul 4, 2015 at 5:34:38 PM

Latest Report: Jul 4, 2015 at 4:00 PM


Visibility: 22 mi

Pressure: 30.14 "Hg

Humidity: 21%

Dew point: 46 °F

Location of GrudziądzLocation

Historic Weather in Grudziądz — Graph

°F

Grudziądz temperature yesterday

Maximum temperature yesterday: 87 °F (at 4:00 PM)
Minimum temperature yesterday: 60 °F (at 4:00 AM)
Average temperature yesterday: 76 °F

Past Weeks' High & Low Weather Summary

 TemperatureHumidityPressure
High91 °F (Jul 4, 4:00 PM)97% (Jun 22, 6:00 AM)30.41 "Hg (Jun 22, 6:00 AM)
Low44 °F (Jun 22, 5:00 AM)21% (Jul 4, 4:00 PM)29.64 "Hg (Jun 23, 4:00 AM)
Average63 °F67%30.07 "Hg
* Reported Jun 19 5:00 PM — Jul 4 4:00 PM, Grudziądz, Weather by CustomWeather, © 2015

Note: Actual official high and low records may vary slightly from our data, if they occured in-between our weather recording intervals... More about our weather records

Advertising

Grudziądz weather history for previous 24 hours

 ConditionsComfort  
Time TempWeatherWind HumidityBarometerVisibility
4:00 PM
Sat, Jul 4
91 °FPassing clouds.2 mph21%30.14 "Hg22 mi
3:00 PM89 °FPassing clouds.2 mph22%30.16 "Hg19 mi
2:00 PM88 °FPassing clouds.2 mph24%30.19 "Hg19 mi
1:00 PM88 °FPassing clouds.3 mph24%30.20 "Hg28 mi
12:00 PM87 °FPassing clouds.3 mph27%30.22 "Hg19 mi
11:00 AM86 °FPassing clouds.3 mph28%30.23 "Hg25 mi
10:00 AM83 °FScattered clouds.2 mph33%30.23 "Hg25 mi
9:00 AM79 °FScattered clouds.2 mph40%30.25 "Hg25 mi
8:00 AM75 °FScattered clouds.3 mph49%30.26 "Hg22 mi
7:00 AM71 °FPassing clouds.2 mph55%30.27 "Hg22 mi
6:00 AM67 °FPassing clouds.2 mph63%30.27 "Hg22 mi
5:00 AM64 °FPassing clouds.2 mph69%30.28 "Hg25 mi
4:00 AM64 °FClear.2 mph65%30.28 "Hg31 mi
3:00 AM66 °FClear.1 mph61%30.29 "Hg28 mi
2:00 AM68 °FClear.2 mph57%30.29 "Hg25 mi
1:00 AM69 °FClear.1 mph55%30.31 "Hg25 mi
12:00 AM70 °FClear.1 mph53%30.32 "Hg28 mi
10:00 PM
Fri, Jul 3
73 °FClear.1 mph44%30.30 "Hg28 mi
9:00 PM78 °FSunny.1 mph33%30.30 "Hg31 mi
8:00 PM84 °FSunny.2 mph27%30.29 "Hg31 mi
7:00 PM86 °FSunny.3 mph24%30.29 "Hg31 mi
6:00 PM87 °FSunny.3 mph24%30.31 "Hg28 mi
5:00 PM87 °FSunny.5 mph24%30.32 "Hg28 mi
Weather by CustomWeather, © 2015

See weather overviewHow to use our weather pages